Year,Month,Day,Hour,Minute,Value (Times are PST for temperature in C)
2010,04,13,00,00,9.30
2010,04,13,00,01,9.30
2010,04,13,00,02,9.30
2010,04,13,00,03,9.30
2010,04,13,00,04,9.30
2010,04,13,00,05,9.30
2010,04,13,00,06,9.30
2010,04,13,00,07,9.30
2010,04,13,00,08,9.30
2010,04,13,00,09,9.30
2010,04,13,00,10,9.30
2010,04,13,00,11,9.30
2010,04,13,00,12,9.20
2010,04,13,00,13,9.20
2010,04,13,00,14,9.20
2010,04,13,00,15,9.20
2010,04,13,00,16,9.20
2010,04,13,00,17,9.20
2010,04,13,00,18,9.20
2010,04,13,00,19,9.20
2010,04,13,00,20,9.20
2010,04,13,00,21,9.20
2010,04,13,00,22,9.20
2010,04,13,00,23,9.20
2010,04,13,00,24,9.20
2010,04,13,00,25,9.20
2010,04,13,00,26,9.20
2010,04,13,00,27,9.20
2010,04,13,00,28,9.20
2010,04,13,00,29,9.20
2010,04,13,00,30,9.20
2010,04,13,00,31,9.20
2010,04,13,00,32,9.20
2010,04,13,00,33,9.20
2010,04,13,00,34,9.20
2010,04,13,00,35,9.20
2010,04,13,00,36,9.20
2010,04,13,00,37,9.20
2010,04,13,00,38,9.20
2010,04,13,00,39,9.20
2010,04,13,00,40,9.20
2010,04,13,00,41,9.20
2010,04,13,00,42,9.20
2010,04,13,00,43,9.20
2010,04,13,00,44,9.20
2010,04,13,00,45,9.20
2010,04,13,00,46,9.20
2010,04,13,00,47,9.10
2010,04,13,00,48,9.10
2010,04,13,00,49,9.00
2010,04,13,00,50,9.00
2010,04,13,00,51,9.00
2010,04,13,00,52,8.90
2010,04,13,00,53,8.90
2010,04,13,00,54,8.90
2010,04,13,00,55,8.90
2010,04,13,00,56,8.90
2010,04,13,00,57,8.90
2010,04,13,00,58,8.90
2010,04,13,00,59,8.80
2010,04,13,01,00,8.80
2010,04,13,01,01,8.80
2010,04,13,01,02,8.80
2010,04,13,01,03,8.80
2010,04,13,01,04,8.80
2010,04,13,01,05,8.80
2010,04,13,01,06,8.80
2010,04,13,01,07,8.80
2010,04,13,01,08,8.80
2010,04,13,01,09,8.80
2010,04,13,01,10,8.80
2010,04,13,01,11,8.80
2010,04,13,01,12,8.80
2010,04,13,01,13,8.80
2010,04,13,01,14,8.80
2010,04,13,01,15,8.80
2010,04,13,01,16,8.70
2010,04,13,01,17,8.70
2010,04,13,01,18,8.70
2010,04,13,01,19,8.70
2010,04,13,01,20,8.70
2010,04,13,01,21,8.70
2010,04,13,01,22,8.70
2010,04,13,01,23,8.70
2010,04,13,01,24,8.70
2010,04,13,01,25,8.70
2010,04,13,01,26,8.70
2010,04,13,01,27,8.70
2010,04,13,01,28,8.70
2010,04,13,01,29,8.70
2010,04,13,01,30,8.70
2010,04,13,01,31,8.70
2010,04,13,01,32,8.70
2010,04,13,01,33,8.70
2010,04,13,01,34,8.70
2010,04,13,01,35,8.70
2010,04,13,01,36,8.70
2010,04,13,01,37,8.70
2010,04,13,01,38,8.70
2010,04,13,01,39,8.70
2010,04,13,01,40,8.70
2010,04,13,01,41,8.70
2010,04,13,01,42,8.70
2010,04,13,01,43,8.70
2010,04,13,01,44,8.70
2010,04,13,01,45,8.70
2010,04,13,01,46,8.70
2010,04,13,01,47,8.70
2010,04,13,01,48,8.70
2010,04,13,01,49,8.70
2010,04,13,01,50,8.70
2010,04,13,01,51,8.70
2010,04,13,01,52,8.70
2010,04,13,01,53,8.70
2010,04,13,01,54,8.70
2010,04,13,01,55,8.70
2010,04,13,01,56,8.70
2010,04,13,01,57,8.70
2010,04,13,01,58,8.70
2010,04,13,01,59,8.70
2010,04,13,02,00,8.70
2010,04,13,02,01,8.70
2010,04,13,02,02,8.70
2010,04,13,02,03,8.70
2010,04,13,02,04,8.70
2010,04,13,02,05,8.70
2010,04,13,02,06,8.70
2010,04,13,02,07,8.70
2010,04,13,02,08,8.70
2010,04,13,02,09,8.70
2010,04,13,02,10,8.70
2010,04,13,02,11,8.70
2010,04,13,02,12,8.60
2010,04,13,02,13,8.60
2010,04,13,02,14,8.60
2010,04,13,02,15,8.60
2010,04,13,02,16,8.60
2010,04,13,02,17,8.60
2010,04,13,02,18,8.60
2010,04,13,02,19,8.60
2010,04,13,02,20,8.60
2010,04,13,02,21,8.60
2010,04,13,02,22,8.60
2010,04,13,02,23,8.50
2010,04,13,02,24,8.50
2010,04,13,02,25,8.50
2010,04,13,02,26,8.50
2010,04,13,02,27,8.50
2010,04,13,02,28,8.50
2010,04,13,02,29,8.50
2010,04,13,02,30,8.40
2010,04,13,02,31,8.40
2010,04,13,02,32,8.40
2010,04,13,02,33,8.40
2010,04,13,02,34,8.40
2010,04,13,02,35,8.40
2010,04,13,02,36,8.40
2010,04,13,02,37,8.40
2010,04,13,02,38,8.40
2010,04,13,02,39,8.40
2010,04,13,02,40,8.40
2010,04,13,02,41,8.30
2010,04,13,02,42,8.30
2010,04,13,02,43,8.30
2010,04,13,02,44,8.30
2010,04,13,02,45,8.30
2010,04,13,02,46,8.20
2010,04,13,02,47,8.20
2010,04,13,02,48,8.20
2010,04,13,02,49,8.20
2010,04,13,02,50,8.20
2010,04,13,02,51,8.20
2010,04,13,02,52,8.20
2010,04,13,02,53,8.20
2010,04,13,02,54,8.20
2010,04,13,02,55,8.20
2010,04,13,02,56,8.20
2010,04,13,02,57,8.10
2010,04,13,02,58,8.10
2010,04,13,02,59,8.10
2010,04,13,03,00,8.10
2010,04,13,03,01,8.10
2010,04,13,03,02,8.00
2010,04,13,03,03,8.00
2010,04,13,03,04,8.00
2010,04,13,03,05,8.00
2010,04,13,03,06,8.00
2010,04,13,03,07,8.00
2010,04,13,03,08,8.00
2010,04,13,03,09,8.00
2010,04,13,03,10,8.00
2010,04,13,03,11,8.00
2010,04,13,03,12,8.00
2010,04,13,03,13,8.00
2010,04,13,03,14,8.00
2010,04,13,03,15,8.00
2010,04,13,03,16,7.90
2010,04,13,03,17,7.90
2010,04,13,03,18,7.90
2010,04,13,03,19,7.90
2010,04,13,03,20,7.90
2010,04,13,03,21,7.90
2010,04,13,03,22,7.90
2010,04,13,03,23,7.90
2010,04,13,03,24,7.90
2010,04,13,03,25,7.90
2010,04,13,03,26,7.90
2010,04,13,03,27,7.90
2010,04,13,03,28,7.90
2010,04,13,03,29,7.90
2010,04,13,03,30,7.90
2010,04,13,03,31,7.90
2010,04,13,03,32,7.90
2010,04,13,03,33,7.90
2010,04,13,03,34,7.90
2010,04,13,03,35,7.90
2010,04,13,03,36,7.90
2010,04,13,03,37,7.90
2010,04,13,03,38,7.90
2010,04,13,03,39,7.90
2010,04,13,03,40,7.90
2010,04,13,03,41,7.90
2010,04,13,03,42,7.90
2010,04,13,03,43,7.90
2010,04,13,03,44,7.90
2010,04,13,03,45,7.90
2010,04,13,03,46,7.90
2010,04,13,03,47,8.00
2010,04,13,03,48,8.00
2010,04,13,03,49,8.00
2010,04,13,03,50,8.00
2010,04,13,03,51,8.00
2010,04,13,03,52,8.00
2010,04,13,03,53,8.00
2010,04,13,03,54,7.90
2010,04,13,03,55,7.90
2010,04,13,03,56,7.90
2010,04,13,03,57,7.90
2010,04,13,03,58,7.90
2010,04,13,03,59,7.90
2010,04,13,04,00,7.80
2010,04,13,04,01,7.80
2010,04,13,04,02,7.80
2010,04,13,04,03,7.80
2010,04,13,04,04,7.80
2010,04,13,04,05,7.80
2010,04,13,04,06,7.80
2010,04,13,04,07,7.80
2010,04,13,04,08,7.80
2010,04,13,04,09,7.80
2010,04,13,04,10,7.80
2010,04,13,04,11,7.80
2010,04,13,04,12,7.80
2010,04,13,04,13,7.80
2010,04,13,04,14,7.80
2010,04,13,04,15,7.80
2010,04,13,04,16,7.80
2010,04,13,04,17,7.80
2010,04,13,04,18,7.80
2010,04,13,04,19,7.80
2010,04,13,04,20,7.80
2010,04,13,04,21,7.80
2010,04,13,04,22,7.80
2010,04,13,04,23,7.80
2010,04,13,04,24,7.80
2010,04,13,04,25,7.80
2010,04,13,04,26,7.80
2010,04,13,04,27,7.80
2010,04,13,04,28,7.80
2010,04,13,04,29,7.80
2010,04,13,04,30,7.80
2010,04,13,04,31,7.80
2010,04,13,04,32,7.80
2010,04,13,04,33,7.80
2010,04,13,04,34,7.80
2010,04,13,04,35,7.80
2010,04,13,04,36,7.80
2010,04,13,04,37,7.80
2010,04,13,04,38,7.80
2010,04,13,04,39,7.80
2010,04,13,04,40,7.80
2010,04,13,04,41,7.80
2010,04,13,04,42,7.80
2010,04,13,04,43,7.80
2010,04,13,04,44,7.80
2010,04,13,04,45,7.80
2010,04,13,04,46,7.70
2010,04,13,04,47,7.70
2010,04,13,04,48,7.70
2010,04,13,04,49,7.70
2010,04,13,04,50,7.70
2010,04,13,04,51,7.80
2010,04,13,04,52,7.80
2010,04,13,04,53,7.80
2010,04,13,04,54,7.80
2010,04,13,04,55,7.80
2010,04,13,04,56,7.80
2010,04,13,04,57,7.80
2010,04,13,04,58,7.80
2010,04,13,04,59,7.80
2010,04,13,05,00,7.80
2010,04,13,05,01,7.80
2010,04,13,05,02,7.80
2010,04,13,05,03,7.80
2010,04,13,05,04,7.80
2010,04,13,05,05,7.80
2010,04,13,05,06,7.70
2010,04,13,05,07,7.70
2010,04,13,05,08,7.70
2010,04,13,05,09,7.60
2010,04,13,05,10,7.60
2010,04,13,05,11,7.60
2010,04,13,05,12,7.60
2010,04,13,05,13,7.60
2010,04,13,05,14,7.60
2010,04,13,05,15,7.60
2010,04,13,05,16,7.60
2010,04,13,05,17,7.60
2010,04,13,05,18,7.60
2010,04,13,05,19,7.60
2010,04,13,05,20,7.60
2010,04,13,05,21,7.60
2010,04,13,05,22,7.50
2010,04,13,05,23,7.50
2010,04,13,05,24,7.50
2010,04,13,05,25,7.50
2010,04,13,05,26,7.50
2010,04,13,05,27,7.50
2010,04,13,05,28,7.50
2010,04,13,05,29,7.50
2010,04,13,05,30,7.50
2010,04,13,05,31,7.50
2010,04,13,05,32,7.50
2010,04,13,05,33,7.40
2010,04,13,05,34,7.40
2010,04,13,05,35,7.40
2010,04,13,05,36,7.40
2010,04,13,05,37,7.40
2010,04,13,05,38,7.40
2010,04,13,05,39,7.40
2010,04,13,05,40,7.40
2010,04,13,05,41,7.40
2010,04,13,05,42,7.50
2010,04,13,05,43,7.50
2010,04,13,05,44,7.50
2010,04,13,05,45,7.50
2010,04,13,05,46,7.50
2010,04,13,05,47,7.40
2010,04,13,05,48,7.40
2010,04,13,05,49,7.40
2010,04,13,05,50,7.30
2010,04,13,05,51,7.30
2010,04,13,05,52,7.30
2010,04,13,05,53,7.30
2010,04,13,05,54,7.30
2010,04,13,05,55,7.30
2010,04,13,05,56,7.30
2010,04,13,05,57,7.30
2010,04,13,05,58,7.30
2010,04,13,05,59,7.30
2010,04,13,06,00,7.30
2010,04,13,06,01,7.30
2010,04,13,06,02,7.30
2010,04,13,06,03,7.20
2010,04,13,06,04,7.20
2010,04,13,06,05,7.20
2010,04,13,06,06,7.20
2010,04,13,06,07,7.10
2010,04,13,06,08,7.10
2010,04,13,06,09,7.10
2010,04,13,06,10,7.10
2010,04,13,06,11,7.10
2010,04,13,06,12,7.10
2010,04,13,06,13,7.10
2010,04,13,06,14,7.10
2010,04,13,06,15,7.00
2010,04,13,06,16,7.00
2010,04,13,06,17,7.00
2010,04,13,06,18,7.00
2010,04,13,06,19,7.00
2010,04,13,06,20,7.00
2010,04,13,06,21,7.00
2010,04,13,06,22,7.00
2010,04,13,06,23,7.00
2010,04,13,06,24,7.00
2010,04,13,06,25,7.00
2010,04,13,06,26,7.00
2010,04,13,06,27,7.00
2010,04,13,06,28,7.00
2010,04,13,06,29,7.00
2010,04,13,06,30,6.90
2010,04,13,06,31,6.90
2010,04,13,06,32,6.90
2010,04,13,06,33,6.90
2010,04,13,06,34,6.90
2010,04,13,06,35,6.80
2010,04,13,06,36,6.80
2010,04,13,06,37,6.80
2010,04,13,06,38,6.80
2010,04,13,06,39,6.80
2010,04,13,06,40,6.80
2010,04,13,06,41,6.80
2010,04,13,06,42,6.80
2010,04,13,06,43,6.80
2010,04,13,06,44,6.80
2010,04,13,06,45,6.80
2010,04,13,06,46,6.80
2010,04,13,06,47,6.80
2010,04,13,06,48,6.80
2010,04,13,06,49,6.80
2010,04,13,06,50,6.80
2010,04,13,06,51,6.80
2010,04,13,06,52,6.80
2010,04,13,06,53,6.80
2010,04,13,06,54,6.80
2010,04,13,06,55,6.80
2010,04,13,06,56,6.80
2010,04,13,06,57,6.80
2010,04,13,06,58,6.80
2010,04,13,06,59,6.80
2010,04,13,07,00,6.80
2010,04,13,07,01,6.80
2010,04,13,07,02,6.80
2010,04,13,07,03,6.80
2010,04,13,07,04,6.90
2010,04,13,07,05,6.90
2010,04,13,07,06,6.90
2010,04,13,07,07,6.90
2010,04,13,07,08,6.90
2010,04,13,07,09,6.90
2010,04,13,07,10,6.90
2010,04,13,07,11,6.90
2010,04,13,07,12,6.90
2010,04,13,07,13,6.90
2010,04,13,07,14,6.90
2010,04,13,07,15,6.90
2010,04,13,07,16,6.90
2010,04,13,07,17,6.90
2010,04,13,07,18,6.90
2010,04,13,07,19,6.90
2010,04,13,07,20,6.90
2010,04,13,07,21,6.90
2010,04,13,07,22,6.90
2010,04,13,07,23,6.90
2010,04,13,07,24,7.00
2010,04,13,07,25,7.00
2010,04,13,07,26,7.00
2010,04,13,07,27,7.00
2010,04,13,07,28,7.00
2010,04,13,07,29,7.10
2010,04,13,07,30,7.10
2010,04,13,07,31,7.10
2010,04,13,07,32,7.10
2010,04,13,07,33,7.20
2010,04,13,07,34,7.20
2010,04,13,07,35,7.20
2010,04,13,07,36,7.30
2010,04,13,07,37,7.30
2010,04,13,07,38,7.30
2010,04,13,07,39,7.30
2010,04,13,07,40,7.40
2010,04,13,07,41,7.40
2010,04,13,07,42,7.50
2010,04,13,07,43,7.50
2010,04,13,07,44,7.50
2010,04,13,07,45,7.60
2010,04,13,07,46,7.60
2010,04,13,07,47,7.60
2010,04,13,07,48,7.70
2010,04,13,07,49,7.70
2010,04,13,07,50,7.70
2010,04,13,07,51,7.70
2010,04,13,07,52,7.80
2010,04,13,07,53,7.80
2010,04,13,07,54,7.80
2010,04,13,07,55,7.80
2010,04,13,07,56,7.80
2010,04,13,07,57,7.80
2010,04,13,07,58,7.80
2010,04,13,07,59,7.80
2010,04,13,08,00,7.80
2010,04,13,08,01,7.90
2010,04,13,08,02,7.90
2010,04,13,08,03,7.90
2010,04,13,08,04,8.00
2010,04,13,08,05,8.10
2010,04,13,08,06,8.10
2010,04,13,08,07,8.20
2010,04,13,08,08,8.30
2010,04,13,08,09,8.30
2010,04,13,08,10,8.40
2010,04,13,08,11,8.50
2010,04,13,08,12,8.50
2010,04,13,08,13,8.60
2010,04,13,08,14,8.60
2010,04,13,08,15,8.70
2010,04,13,08,16,8.70
2010,04,13,08,17,8.80
2010,04,13,08,18,8.80
2010,04,13,08,19,8.90
2010,04,13,08,20,8.90
2010,04,13,08,21,8.90
2010,04,13,08,22,9.00
2010,04,13,08,23,9.00
2010,04,13,08,24,9.10
2010,04,13,08,25,9.10
2010,04,13,08,26,9.10
2010,04,13,08,27,9.20
2010,04,13,08,28,9.20
2010,04,13,08,29,9.20
2010,04,13,08,30,9.20
2010,04,13,08,31,9.20
2010,04,13,08,32,9.30
2010,04,13,08,33,9.30
2010,04,13,08,34,9.40
2010,04,13,08,35,9.50
2010,04,13,08,36,9.60
2010,04,13,08,37,9.60
2010,04,13,08,38,9.70
2010,04,13,08,39,9.80
2010,04,13,08,40,9.90
2010,04,13,08,41,9.90
2010,04,13,08,42,9.90
2010,04,13,08,43,9.90
2010,04,13,08,44,10.00
2010,04,13,08,45,10.10
2010,04,13,08,46,10.10
2010,04,13,08,47,10.20
2010,04,13,08,48,10.20
2010,04,13,08,49,10.30
2010,04,13,08,50,10.30
2010,04,13,08,51,10.30
2010,04,13,08,52,10.30
2010,04,13,08,53,10.40
2010,04,13,08,54,10.40
2010,04,13,08,55,10.40
2010,04,13,08,56,10.40
2010,04,13,08,57,10.40
2010,04,13,08,58,10.40
2010,04,13,08,59,10.40
2010,04,13,09,00,10.40
2010,04,13,09,01,10.50
2010,04,13,09,02,10.60
2010,04,13,09,03,10.60
2010,04,13,09,04,10.50
2010,04,13,09,05,10.50
2010,04,13,09,06,10.40
2010,04,13,09,07,10.40
2010,04,13,09,08,10.40
2010,04,13,09,09,10.40
2010,04,13,09,10,10.40
2010,04,13,09,11,10.50
2010,04,13,09,12,10.60
2010,04,13,09,13,10.60
2010,04,13,09,14,10.60
2010,04,13,09,15,10.60
2010,04,13,09,16,10.60
2010,04,13,09,17,10.60
2010,04,13,09,18,10.60
2010,04,13,09,19,10.60
2010,04,13,09,20,10.60
2010,04,13,09,21,10.60
2010,04,13,09,22,10.60
2010,04,13,09,23,10.60
2010,04,13,09,24,10.60
2010,04,13,09,25,10.70
2010,04,13,09,26,10.70
2010,04,13,09,27,10.70
2010,04,13,09,28,10.70
2010,04,13,09,29,10.80
2010,04,13,09,30,10.80
2010,04,13,09,31,10.90
2010,04,13,09,32,10.90
2010,04,13,09,33,10.90
2010,04,13,09,34,10.90
2010,04,13,09,35,10.90
2010,04,13,09,36,10.90
2010,04,13,09,37,10.90
2010,04,13,09,38,10.90
2010,04,13,09,39,10.90
2010,04,13,09,40,10.90
2010,04,13,09,41,11.00
2010,04,13,09,42,11.10
2010,04,13,09,43,11.10
2010,04,13,09,44,11.10
2010,04,13,09,45,11.10
2010,04,13,09,46,11.10
2010,04,13,09,47,11.10
2010,04,13,09,48,11.10
2010,04,13,09,49,11.20
2010,04,13,09,50,11.20
2010,04,13,09,51,11.20
2010,04,13,09,52,11.30
2010,04,13,09,53,11.20
2010,04,13,09,54,11.20
2010,04,13,09,55,11.20
2010,04,13,09,56,11.20
2010,04,13,09,57,11.30
2010,04,13,09,58,11.30
2010,04,13,09,59,11.40
2010,04,13,10,00,11.40
2010,04,13,10,01,11.40
2010,04,13,10,02,11.60
2010,04,13,10,03,11.60
2010,04,13,10,04,11.60
2010,04,13,10,05,11.60
2010,04,13,10,06,11.60
2010,04,13,10,07,11.60
2010,04,13,10,08,11.50
2010,04,13,10,09,11.40
2010,04,13,10,10,11.40
2010,04,13,10,11,11.50
2010,04,13,10,12,11.60
2010,04,13,10,13,11.60
2010,04,13,10,14,11.60
2010,04,13,10,15,11.60
2010,04,13,10,16,11.60
2010,04,13,10,17,11.70
2010,04,13,10,18,11.70
2010,04,13,10,19,11.80
2010,04,13,10,20,11.80
2010,04,13,10,21,11.90
2010,04,13,10,22,11.90
2010,04,13,10,23,11.90
2010,04,13,10,24,11.80
2010,04,13,10,25,11.80
2010,04,13,10,26,11.80
2010,04,13,10,27,11.80
2010,04,13,10,28,11.80
2010,04,13,10,29,11.80
2010,04,13,10,30,11.80
2010,04,13,10,31,11.80
2010,04,13,10,32,11.80
2010,04,13,10,33,11.90
2010,04,13,10,34,11.90
2010,04,13,10,35,12.00
2010,04,13,10,36,12.10
2010,04,13,10,37,12.10
2010,04,13,10,38,12.20
2010,04,13,10,39,12.20
2010,04,13,10,40,12.30
2010,04,13,10,41,12.30
2010,04,13,10,42,12.40
2010,04,13,10,43,12.40
2010,04,13,10,44,12.40
2010,04,13,10,45,12.50
2010,04,13,10,46,12.50
2010,04,13,10,47,12.60
2010,04,13,10,48,12.60
2010,04,13,10,49,12.70
2010,04,13,10,50,12.80
2010,04,13,10,51,12.80
2010,04,13,10,52,12.90
2010,04,13,10,53,12.90
2010,04,13,10,54,12.90
2010,04,13,10,55,12.90
2010,04,13,10,56,12.90
2010,04,13,10,57,12.80
2010,04,13,10,58,12.70
2010,04,13,10,59,12.70
2010,04,13,11,00,12.70
2010,04,13,11,01,12.60
2010,04,13,11,02,12.60
2010,04,13,11,03,12.60
2010,04,13,11,04,12.60
2010,04,13,11,05,12.60
2010,04,13,11,06,12.50
2010,04,13,11,07,12.40
2010,04,13,11,08,12.30
2010,04,13,11,09,12.30
2010,04,13,11,10,12.20
2010,04,13,11,11,12.20
2010,04,13,11,12,12.20
2010,04,13,11,13,12.20
2010,04,13,11,14,12.20
2010,04,13,11,15,12.20
2010,04,13,11,16,12.30
2010,04,13,11,17,12.30
2010,04,13,11,18,12.30
2010,04,13,11,19,12.30
2010,04,13,11,20,12.30
2010,04,13,11,21,12.30
2010,04,13,11,22,12.30
2010,04,13,11,23,12.20
2010,04,13,11,24,12.20
2010,04,13,11,25,12.20
2010,04,13,11,26,12.20
2010,04,13,11,27,12.20
2010,04,13,11,28,12.20
2010,04,13,11,29,12.20
2010,04,13,11,30,12.20
2010,04,13,11,31,12.30
2010,04,13,11,32,12.30
2010,04,13,11,33,12.30
2010,04,13,11,34,12.30
2010,04,13,11,35,12.30
2010,04,13,11,36,12.40
2010,04,13,11,37,12.50
2010,04,13,11,38,12.50
2010,04,13,11,39,12.50
2010,04,13,11,40,12.50
2010,04,13,11,41,12.50
2010,04,13,11,42,12.50
2010,04,13,11,43,12.50
2010,04,13,11,44,12.40
2010,04,13,11,45,12.40
2010,04,13,11,46,12.40
2010,04,13,11,47,12.30
2010,04,13,11,48,12.30
2010,04,13,11,49,12.30
2010,04,13,11,50,12.30
2010,04,13,11,51,12.30
2010,04,13,11,52,12.30
2010,04,13,11,53,12.30
2010,04,13,11,54,12.30
2010,04,13,11,55,12.20
2010,04,13,11,56,12.20
2010,04,13,11,57,12.20
2010,04,13,11,58,12.20
2010,04,13,11,59,12.20
2010,04,13,12,00,12.20
2010,04,13,12,01,12.20
2010,04,13,12,02,12.10
2010,04,13,12,03,12.10
2010,04,13,12,04,12.00
2010,04,13,12,05,12.00
2010,04,13,12,06,11.90
2010,04,13,12,07,11.80
2010,04,13,12,08,11.80
2010,04,13,12,09,11.60
2010,04,13,12,10,11.60
2010,04,13,12,11,11.50
2010,04,13,12,12,11.40
2010,04,13,12,13,11.30
2010,04,13,12,14,11.20
2010,04,13,12,15,11.10
2010,04,13,12,16,11.00
2010,04,13,12,17,10.90
2010,04,13,12,18,10.90
2010,04,13,12,19,10.90
2010,04,13,12,20,10.80
2010,04,13,12,21,10.70
2010,04,13,12,22,10.70
2010,04,13,12,23,10.60
2010,04,13,12,24,10.60
2010,04,13,12,25,10.60
2010,04,13,12,26,10.60
2010,04,13,12,27,10.60
2010,04,13,12,28,10.60
2010,04,13,12,29,10.60
2010,04,13,12,30,10.50
2010,04,13,12,31,10.40
2010,04,13,12,32,10.40
2010,04,13,12,33,10.40
2010,04,13,12,34,10.40
2010,04,13,12,35,10.40
2010,04,13,12,36,10.40
2010,04,13,12,37,10.40
2010,04,13,12,38,10.40
2010,04,13,12,39,10.40
2010,04,13,12,40,10.40
2010,04,13,12,41,10.40
2010,04,13,12,42,10.40
2010,04,13,12,43,10.40
2010,04,13,12,44,10.40
2010,04,13,12,45,10.40
2010,04,13,12,46,10.50
2010,04,13,12,47,10.60
2010,04,13,12,48,10.60
2010,04,13,12,49,10.60
2010,04,13,12,50,10.60
2010,04,13,12,51,10.60
2010,04,13,12,52,10.60
2010,04,13,12,53,10.60
2010,04,13,12,54,10.70
2010,04,13,12,55,10.70
2010,04,13,12,56,10.70
2010,04,13,12,57,10.80
2010,04,13,12,58,10.80
2010,04,13,12,59,10.80
2010,04,13,13,00,10.80
2010,04,13,13,01,10.80
2010,04,13,13,02,10.90
2010,04,13,13,03,10.90
2010,04,13,13,04,10.90
2010,04,13,13,05,10.80
2010,04,13,13,06,10.80
2010,04,13,13,07,10.70
2010,04,13,13,08,10.70
2010,04,13,13,09,10.70
2010,04,13,13,10,10.70
2010,04,13,13,11,10.70
2010,04,13,13,12,10.70
2010,04,13,13,13,10.80
2010,04,13,13,14,10.80
2010,04,13,13,15,10.90
2010,04,13,13,16,10.90
2010,04,13,13,17,10.90
2010,04,13,13,18,10.90
2010,04,13,13,19,10.90
2010,04,13,13,20,10.90
2010,04,13,13,21,10.90
2010,04,13,13,22,10.90
2010,04,13,13,23,10.90
2010,04,13,13,24,10.90
2010,04,13,13,25,10.90
2010,04,13,13,26,10.90
2010,04,13,13,27,10.90
2010,04,13,13,28,10.90
2010,04,13,13,29,10.90
2010,04,13,13,30,10.90
2010,04,13,13,31,10.90
2010,04,13,13,32,10.90
2010,04,13,13,33,11.00
2010,04,13,13,34,11.10
2010,04,13,13,35,11.10
2010,04,13,13,36,11.10
2010,04,13,13,37,11.10
2010,04,13,13,38,11.20
2010,04,13,13,39,11.20
2010,04,13,13,40,11.30
2010,04,13,13,41,11.30
2010,04,13,13,42,11.40
2010,04,13,13,43,11.40
2010,04,13,13,44,11.40
2010,04,13,13,45,11.40
2010,04,13,13,46,11.40
2010,04,13,13,47,11.40
2010,04,13,13,48,11.40
2010,04,13,13,49,11.40
2010,04,13,13,50,11.40
2010,04,13,13,51,11.40
2010,04,13,13,52,11.40
2010,04,13,13,53,11.40
2010,04,13,13,54,11.40
2010,04,13,13,55,11.40
2010,04,13,13,56,11.50
2010,04,13,13,57,11.60
2010,04,13,13,58,11.60
2010,04,13,13,59,11.60
2010,04,13,14,00,11.60
2010,04,13,14,01,11.60
2010,04,13,14,02,11.60
2010,04,13,14,03,11.60
2010,04,13,14,04,11.40
2010,04,13,14,05,11.40
2010,04,13,14,06,11.40
2010,04,13,14,07,11.50
2010,04,13,14,08,11.60
2010,04,13,14,09,11.60
2010,04,13,14,10,11.60
2010,04,13,14,11,11.60
2010,04,13,14,12,11.60
2010,04,13,14,13,11.60
2010,04,13,14,14,11.60
2010,04,13,14,15,11.60
2010,04,13,14,16,11.60
2010,04,13,14,17,11.60
2010,04,13,14,18,11.70
2010,04,13,14,19,11.70
2010,04,13,14,20,11.70
2010,04,13,14,21,11.70
2010,04,13,14,22,11.80
2010,04,13,14,23,11.80
2010,04,13,14,24,11.80
2010,04,13,14,25,11.70
2010,04,13,14,26,11.70
2010,04,13,14,27,11.70
2010,04,13,14,28,11.70
2010,04,13,14,29,11.60
2010,04,13,14,30,11.60
2010,04,13,14,31,11.60
2010,04,13,14,32,11.60
2010,04,13,14,33,11.60
2010,04,13,14,34,11.60
2010,04,13,14,35,11.60
2010,04,13,14,36,11.70
2010,04,13,14,37,11.70
2010,04,13,14,38,11.80
2010,04,13,14,39,11.80
2010,04,13,14,40,11.80
2010,04,13,14,41,11.80
2010,04,13,14,42,11.80
2010,04,13,14,43,11.90
2010,04,13,14,44,12.00
2010,04,13,14,45,12.00
2010,04,13,14,46,12.10
2010,04,13,14,47,12.10
2010,04,13,14,48,12.10
2010,04,13,14,49,12.10
2010,04,13,14,50,12.20
2010,04,13,14,51,12.20
2010,04,13,14,52,12.30
2010,04,13,14,53,12.40
2010,04,13,14,54,12.50
2010,04,13,14,55,12.60
2010,04,13,14,56,12.70
2010,04,13,14,57,12.70
2010,04,13,14,58,12.70
2010,04,13,14,59,12.70
2010,04,13,15,00,12.80
2010,04,13,15,01,12.80
2010,04,13,15,02,12.80
2010,04,13,15,03,12.90
2010,04,13,15,04,12.90
2010,04,13,15,05,13.00
2010,04,13,15,06,13.00
2010,04,13,15,07,13.00
2010,04,13,15,08,13.00
2010,04,13,15,09,13.00
2010,04,13,15,10,13.00
2010,04,13,15,11,12.90
2010,04,13,15,12,12.80
2010,04,13,15,13,12.80
2010,04,13,15,14,12.80
2010,04,13,15,15,12.80
2010,04,13,15,16,12.80
2010,04,13,15,17,12.80
2010,04,13,15,18,12.80
2010,04,13,15,19,12.80
2010,04,13,15,20,12.90
2010,04,13,15,21,12.90
2010,04,13,15,22,13.00
2010,04,13,15,23,13.00
2010,04,13,15,24,13.00
2010,04,13,15,25,12.90
2010,04,13,15,26,13.00
2010,04,13,15,27,13.00
2010,04,13,15,28,13.10
2010,04,13,15,29,13.00
2010,04,13,15,30,13.10
2010,04,13,15,31,13.10
2010,04,13,15,32,13.10
2010,04,13,15,33,13.10
2010,04,13,15,34,13.10
2010,04,13,15,35,13.20
2010,04,13,15,36,13.20
2010,04,13,15,37,13.20
2010,04,13,15,38,13.10
2010,04,13,15,39,13.00
2010,04,13,15,40,13.00
2010,04,13,15,41,12.90
2010,04,13,15,42,13.00
2010,04,13,15,43,13.10
2010,04,13,15,44,13.20
2010,04,13,15,45,13.30
2010,04,13,15,46,13.40
2010,04,13,15,47,13.50
2010,04,13,15,48,13.50
2010,04,13,15,49,13.50
2010,04,13,15,50,13.60
2010,04,13,15,51,13.60
2010,04,13,15,52,13.60
2010,04,13,15,53,13.60
2010,04,13,15,54,13.50
2010,04,13,15,55,13.40
2010,04,13,15,56,13.30
2010,04,13,15,57,13.30
2010,04,13,15,58,13.40
2010,04,13,15,59,13.40
2010,04,13,16,00,13.40
2010,04,13,16,01,13.40
2010,04,13,16,02,13.30
2010,04,13,16,03,13.30
2010,04,13,16,04,13.30
2010,04,13,16,05,13.30
2010,04,13,16,06,13.30
2010,04,13,16,07,13.30
2010,04,13,16,08,13.30
2010,04,13,16,09,13.30
2010,04,13,16,10,13.30
2010,04,13,16,11,13.30
2010,04,13,16,12,13.20
2010,04,13,16,13,13.20
2010,04,13,16,14,13.20
2010,04,13,16,15,13.20
2010,04,13,16,16,13.10
2010,04,13,16,17,13.00
2010,04,13,16,18,13.00
2010,04,13,16,19,13.10
2010,04,13,16,20,13.20
2010,04,13,16,21,13.20
2010,04,13,16,22,13.20
2010,04,13,16,23,13.30
2010,04,13,16,24,13.30
2010,04,13,16,25,13.30
2010,04,13,16,26,13.30
2010,04,13,16,27,13.30
2010,04,13,16,28,13.30
2010,04,13,16,29,13.30
2010,04,13,16,30,13.20
2010,04,13,16,31,13.20
2010,04,13,16,32,13.10
2010,04,13,16,33,13.00
2010,04,13,16,34,13.00
2010,04,13,16,35,12.90
2010,04,13,16,36,12.90
2010,04,13,16,37,12.80
2010,04,13,16,38,12.80
2010,04,13,16,39,12.80
2010,04,13,16,40,12.80
2010,04,13,16,41,12.80
2010,04,13,16,42,12.80
2010,04,13,16,43,12.90
2010,04,13,16,44,12.90
2010,04,13,16,45,13.00
2010,04,13,16,46,13.00
2010,04,13,16,47,12.90
2010,04,13,16,48,12.90
2010,04,13,16,49,12.90
2010,04,13,16,50,12.90
2010,04,13,16,51,12.90
2010,04,13,16,52,13.00
2010,04,13,16,53,13.10
2010,04,13,16,54,13.10
2010,04,13,16,55,13.20
2010,04,13,16,56,13.20
2010,04,13,16,57,13.20
2010,04,13,16,58,13.20
2010,04,13,16,59,13.10
2010,04,13,17,00,13.10
2010,04,13,17,01,13.10
2010,04,13,17,02,13.00
2010,04,13,17,03,13.00
2010,04,13,17,04,13.00
2010,04,13,17,05,12.90
2010,04,13,17,06,12.90
2010,04,13,17,07,12.90
2010,04,13,17,08,13.00
2010,04,13,17,09,13.10
2010,04,13,17,10,13.10
2010,04,13,17,11,13.20
2010,04,13,17,12,13.20
2010,04,13,17,13,13.20
2010,04,13,17,14,13.20
2010,04,13,17,15,13.20
2010,04,13,17,16,13.20
2010,04,13,17,17,13.20
2010,04,13,17,18,13.20
2010,04,13,17,19,13.10
2010,04,13,17,20,13.10
2010,04,13,17,21,13.10
2010,04,13,17,22,13.20
2010,04,13,17,23,13.20
2010,04,13,17,24,13.20
2010,04,13,17,25,13.20
2010,04,13,17,26,13.30
2010,04,13,17,27,13.30
2010,04,13,17,28,13.30
2010,04,13,17,29,13.30
2010,04,13,17,30,13.20
2010,04,13,17,31,13.20
2010,04,13,17,32,13.20
2010,04,13,17,33,13.20
2010,04,13,17,34,13.20
2010,04,13,17,35,13.10
2010,04,13,17,36,13.10
2010,04,13,17,37,13.10
2010,04,13,17,38,13.10
2010,04,13,17,39,13.10
2010,04,13,17,40,13.00
2010,04,13,17,41,12.90
2010,04,13,17,42,12.90